Year,Month,Day,Hour,Minute,Value (Times are PST for temperature in C)
2014,05,02,00,00,11.60
2014,05,02,00,01,11.60
2014,05,02,00,02,11.60
2014,05,02,00,03,11.60
2014,05,02,00,04,11.60
2014,05,02,00,05,11.60
2014,05,02,00,06,11.60
2014,05,02,00,07,11.60
2014,05,02,00,08,11.60
2014,05,02,00,09,11.70
2014,05,02,00,10,11.70
2014,05,02,00,11,11.70
2014,05,02,00,12,11.70
2014,05,02,00,13,11.70
2014,05,02,00,14,11.70
2014,05,02,00,15,11.70
2014,05,02,00,16,11.70
2014,05,02,00,17,11.60
2014,05,02,00,18,11.60
2014,05,02,00,19,11.60
2014,05,02,00,20,11.60
2014,05,02,00,21,11.60
2014,05,02,00,22,11.60
2014,05,02,00,23,11.60
2014,05,02,00,24,11.60
2014,05,02,00,25,11.50
2014,05,02,00,26,11.50
2014,05,02,00,27,11.50
2014,05,02,00,28,11.50
2014,05,02,00,29,11.40
2014,05,02,00,30,11.40
2014,05,02,00,31,11.40
2014,05,02,00,32,11.40
2014,05,02,00,33,11.40
2014,05,02,00,34,11.40
2014,05,02,00,35,11.40
2014,05,02,00,36,11.40
2014,05,02,00,37,11.40
2014,05,02,00,38,11.40
2014,05,02,00,39,11.40
2014,05,02,00,40,11.40
2014,05,02,00,41,11.40
2014,05,02,00,42,11.40
2014,05,02,00,43,11.40
2014,05,02,00,44,11.40
2014,05,02,00,45,11.40
2014,05,02,00,46,11.40
2014,05,02,00,47,11.40
2014,05,02,00,48,11.40
2014,05,02,00,49,11.40
2014,05,02,00,50,11.40
2014,05,02,00,51,11.40
2014,05,02,00,52,11.40
2014,05,02,00,53,11.40
2014,05,02,00,54,11.40
2014,05,02,00,55,11.30
2014,05,02,00,56,11.30
2014,05,02,00,57,11.30
2014,05,02,00,58,11.30
2014,05,02,00,59,11.30
2014,05,02,01,00,11.30
2014,05,02,01,01,11.30
2014,05,02,01,02,11.30
2014,05,02,01,03,11.30
2014,05,02,01,04,11.30
2014,05,02,01,05,11.30
2014,05,02,01,06,11.30
2014,05,02,01,07,11.30
2014,05,02,01,08,11.30
2014,05,02,01,09,11.30
2014,05,02,01,10,11.30
2014,05,02,01,11,11.30
2014,05,02,01,12,11.30
2014,05,02,01,13,11.30
2014,05,02,01,14,11.30
2014,05,02,01,15,11.30
2014,05,02,01,16,11.30
2014,05,02,01,17,11.30
2014,05,02,01,18,11.30
2014,05,02,01,19,11.40
2014,05,02,01,20,11.40
2014,05,02,01,21,11.30
2014,05,02,01,22,11.30
2014,05,02,01,23,11.30
2014,05,02,01,24,11.30
2014,05,02,01,25,11.20
2014,05,02,01,26,11.20
2014,05,02,01,27,11.20
2014,05,02,01,28,11.10
2014,05,02,01,29,11.10
2014,05,02,01,30,11.10
2014,05,02,01,31,11.10
2014,05,02,01,32,11.00
2014,05,02,01,33,11.00
2014,05,02,01,34,10.90
2014,05,02,01,35,10.90
2014,05,02,01,36,10.90
2014,05,02,01,37,10.90
2014,05,02,01,38,10.80
2014,05,02,01,39,10.80
2014,05,02,01,40,10.80
2014,05,02,01,41,10.80
2014,05,02,01,42,10.80
2014,05,02,01,43,10.80
2014,05,02,01,44,10.70
2014,05,02,01,45,10.80
2014,05,02,01,46,10.70
2014,05,02,01,47,10.70
2014,05,02,01,48,10.70
2014,05,02,01,49,10.70
2014,05,02,01,50,10.70
2014,05,02,01,51,10.70
2014,05,02,01,52,10.70
2014,05,02,01,53,10.70
2014,05,02,01,54,10.70
2014,05,02,01,55,10.70
2014,05,02,01,56,10.70
2014,05,02,01,57,10.70
2014,05,02,01,58,10.70
2014,05,02,01,59,10.70
2014,05,02,02,00,10.70
2014,05,02,02,01,10.60
2014,05,02,02,02,10.60
2014,05,02,02,03,10.60
2014,05,02,02,04,10.50
2014,05,02,02,05,10.50
2014,05,02,02,06,10.50
2014,05,02,02,07,10.40
2014,05,02,02,08,10.40
2014,05,02,02,09,10.40
2014,05,02,02,10,10.40
2014,05,02,02,11,10.40
2014,05,02,02,12,10.40
2014,05,02,02,13,10.40
2014,05,02,02,14,10.40
2014,05,02,02,15,10.40
2014,05,02,02,16,10.40
2014,05,02,02,17,10.40
2014,05,02,02,18,10.40
2014,05,02,02,19,10.40
2014,05,02,02,20,10.40
2014,05,02,02,21,10.50
2014,05,02,02,22,10.50
2014,05,02,02,23,10.50
2014,05,02,02,24,10.40
2014,05,02,02,25,10.40
2014,05,02,02,26,10.40
2014,05,02,02,27,10.40
2014,05,02,02,28,10.40
2014,05,02,02,29,10.40
2014,05,02,02,30,10.40
2014,05,02,02,31,10.40
2014,05,02,02,32,10.40
2014,05,02,02,33,10.40
2014,05,02,02,34,10.40
2014,05,02,02,35,10.40
2014,05,02,02,36,10.30
2014,05,02,02,37,10.30
2014,05,02,02,38,10.30
2014,05,02,02,39,10.30
2014,05,02,02,40,10.30
2014,05,02,02,41,10.30
2014,05,02,02,42,10.30
2014,05,02,02,43,10.30
2014,05,02,02,44,10.30
2014,05,02,02,45,10.30
2014,05,02,02,46,10.30
2014,05,02,02,47,10.30
2014,05,02,02,48,10.30
2014,05,02,02,49,10.30
2014,05,02,02,50,10.20
2014,05,02,02,51,10.20
2014,05,02,02,52,10.20
2014,05,02,02,53,10.20
2014,05,02,02,54,10.10
2014,05,02,02,55,10.10
2014,05,02,02,56,10.10
2014,05,02,02,57,10.10
2014,05,02,02,58,10.10
2014,05,02,02,59,10.10
2014,05,02,03,00,10.10
2014,05,02,03,01,10.10
2014,05,02,03,02,10.10
2014,05,02,03,03,10.00
2014,05,02,03,04,10.00
2014,05,02,03,05,10.00
2014,05,02,03,06,10.00
2014,05,02,03,07,9.90
2014,05,02,03,08,9.90
2014,05,02,03,09,9.90
2014,05,02,03,10,9.90
2014,05,02,03,11,9.90
2014,05,02,03,12,9.90
2014,05,02,03,13,9.90
2014,05,02,03,14,9.90
2014,05,02,03,15,9.90
2014,05,02,03,16,9.90
2014,05,02,03,17,9.90
2014,05,02,03,18,9.90
2014,05,02,03,19,9.90
2014,05,02,03,20,9.90
2014,05,02,03,21,9.90
2014,05,02,03,22,9.90
2014,05,02,03,23,9.90
2014,05,02,03,24,9.90
2014,05,02,03,25,9.90
2014,05,02,03,26,9.90
2014,05,02,03,27,9.80
2014,05,02,03,28,9.80
2014,05,02,03,29,9.80
2014,05,02,03,30,9.80
2014,05,02,03,31,9.70
2014,05,02,03,32,9.70
2014,05,02,03,33,9.70
2014,05,02,03,34,9.70
2014,05,02,03,35,9.70
2014,05,02,03,36,9.60
2014,05,02,03,37,9.60
2014,05,02,03,38,9.60
2014,05,02,03,39,9.60
2014,05,02,03,40,9.60
2014,05,02,03,41,9.60
2014,05,02,03,42,9.60
2014,05,02,03,43,9.60
2014,05,02,03,44,9.60
2014,05,02,03,45,9.70
2014,05,02,03,46,9.70
2014,05,02,03,47,9.70
2014,05,02,03,48,9.60
2014,05,02,03,49,9.60
2014,05,02,03,50,9.60
2014,05,02,03,51,9.60
2014,05,02,03,52,9.60
2014,05,02,03,53,9.60
2014,05,02,03,54,9.60
2014,05,02,03,55,9.60
2014,05,02,03,56,9.60
2014,05,02,03,57,9.60
2014,05,02,03,58,9.60
2014,05,02,03,59,9.60
2014,05,02,04,00,9.60
2014,05,02,04,01,9.60
2014,05,02,04,02,9.60
2014,05,02,04,03,9.60
2014,05,02,04,04,9.60
2014,05,02,04,05,9.60
2014,05,02,04,06,9.60
2014,05,02,04,07,9.60
2014,05,02,04,08,9.60
2014,05,02,04,09,9.60
2014,05,02,04,10,9.60
2014,05,02,04,11,9.60
2014,05,02,04,12,9.60
2014,05,02,04,13,9.50
2014,05,02,04,14,9.50
2014,05,02,04,15,9.50
2014,05,02,04,16,9.50
2014,05,02,04,17,9.50
2014,05,02,04,18,9.50
2014,05,02,04,19,9.50
2014,05,02,04,20,9.50
2014,05,02,04,21,9.50
2014,05,02,04,22,9.50
2014,05,02,04,23,9.50
2014,05,02,04,24,9.50
2014,05,02,04,25,9.50
2014,05,02,04,26,9.50
2014,05,02,04,27,9.50
2014,05,02,04,28,9.50
2014,05,02,04,29,9.50
2014,05,02,04,30,9.50
2014,05,02,04,31,9.50
2014,05,02,04,32,9.50
2014,05,02,04,33,9.50
2014,05,02,04,34,9.40
2014,05,02,04,35,9.50
2014,05,02,04,36,9.50
2014,05,02,04,37,9.50
2014,05,02,04,38,9.50
2014,05,02,04,39,9.50
2014,05,02,04,40,9.40
2014,05,02,04,41,9.40
2014,05,02,04,42,9.40
2014,05,02,04,43,9.40
2014,05,02,04,44,9.40
2014,05,02,04,45,9.40
2014,05,02,04,46,9.40
2014,05,02,04,47,9.40
2014,05,02,04,48,9.40
2014,05,02,04,49,9.40
2014,05,02,04,50,9.40
2014,05,02,04,51,9.40
2014,05,02,04,52,9.40
2014,05,02,04,53,9.40
2014,05,02,04,54,9.30
2014,05,02,04,55,9.30
2014,05,02,04,56,9.30
2014,05,02,04,57,9.30
2014,05,02,04,58,9.30
2014,05,02,04,59,9.30
2014,05,02,05,00,9.30
2014,05,02,05,01,9.30
2014,05,02,05,02,9.30
2014,05,02,05,03,9.30
2014,05,02,05,04,9.30
2014,05,02,05,05,9.30
2014,05,02,05,06,9.30
2014,05,02,05,07,9.30
2014,05,02,05,08,9.30
2014,05,02,05,09,9.30
2014,05,02,05,10,9.30
2014,05,02,05,11,9.30
2014,05,02,05,12,9.20
2014,05,02,05,13,9.20
2014,05,02,05,14,9.20
2014,05,02,05,15,9.20
2014,05,02,05,16,9.20
2014,05,02,05,17,9.20
2014,05,02,05,18,9.30
2014,05,02,05,19,9.30
2014,05,02,05,20,9.20
2014,05,02,05,21,9.20
2014,05,02,05,22,9.20
2014,05,02,05,23,9.20
2014,05,02,05,24,9.20
2014,05,02,05,25,9.20
2014,05,02,05,26,9.20
2014,05,02,05,27,9.20
2014,05,02,05,28,9.20
2014,05,02,05,29,9.20
2014,05,02,05,30,9.20
2014,05,02,05,31,9.20
2014,05,02,05,32,9.20
2014,05,02,05,33,9.10
2014,05,02,05,34,9.10
2014,05,02,05,35,9.10
2014,05,02,05,36,9.10
2014,05,02,05,37,9.00
2014,05,02,05,38,9.00
2014,05,02,05,39,8.90
2014,05,02,05,40,8.90
2014,05,02,05,41,8.90
2014,05,02,05,42,8.80
2014,05,02,05,43,8.80
2014,05,02,05,44,8.80
2014,05,02,05,45,8.80
2014,05,02,05,46,8.70
2014,05,02,05,47,8.70
2014,05,02,05,48,8.70
2014,05,02,05,49,8.70
2014,05,02,05,50,8.70
2014,05,02,05,51,8.70
2014,05,02,05,52,8.70
2014,05,02,05,53,8.70
2014,05,02,05,54,8.70
2014,05,02,05,55,8.70
2014,05,02,05,56,8.70
2014,05,02,05,57,8.70
2014,05,02,05,58,8.70
2014,05,02,05,59,8.70
2014,05,02,06,00,8.70
2014,05,02,06,01,8.70
2014,05,02,06,02,8.70
2014,05,02,06,03,8.70
2014,05,02,06,04,8.70
2014,05,02,06,05,8.70
2014,05,02,06,06,8.70
2014,05,02,06,07,8.70
2014,05,02,06,08,8.70
2014,05,02,06,09,8.70
2014,05,02,06,10,8.70
2014,05,02,06,11,8.70
2014,05,02,06,12,8.80
2014,05,02,06,13,8.80
2014,05,02,06,14,8.80
2014,05,02,06,15,8.70
2014,05,02,06,16,8.70
2014,05,02,06,17,8.70
2014,05,02,06,18,8.70
2014,05,02,06,19,8.70
2014,05,02,06,20,8.70
2014,05,02,06,21,8.70
2014,05,02,06,22,8.60
2014,05,02,06,23,8.60
2014,05,02,06,24,8.60
2014,05,02,06,25,8.60
2014,05,02,06,26,8.60
2014,05,02,06,27,8.60
2014,05,02,06,28,8.60
2014,05,02,06,29,8.60
2014,05,02,06,30,8.60
2014,05,02,06,31,8.60
2014,05,02,06,32,8.60
2014,05,02,06,33,8.60
2014,05,02,06,34,8.70
2014,05,02,06,35,8.80
2014,05,02,06,36,8.80
2014,05,02,06,37,8.80
2014,05,02,06,38,8.80
2014,05,02,06,39,8.90
2014,05,02,06,40,9.00
2014,05,02,06,41,9.00
2014,05,02,06,42,9.00
2014,05,02,06,43,9.10
2014,05,02,06,44,9.10
2014,05,02,06,45,9.10
2014,05,02,06,46,9.10
2014,05,02,06,47,9.10
2014,05,02,06,48,9.10
2014,05,02,06,49,9.10
2014,05,02,06,50,9.10
2014,05,02,06,51,9.10
2014,05,02,06,52,9.10
2014,05,02,06,53,9.10
2014,05,02,06,54,9.10
2014,05,02,06,55,9.20
2014,05,02,06,56,9.20
2014,05,02,06,57,9.20
2014,05,02,06,58,9.20
2014,05,02,06,59,9.20
2014,05,02,07,00,9.20
2014,05,02,07,01,9.30
2014,05,02,07,02,9.30
2014,05,02,07,03,9.30
2014,05,02,07,04,9.40
2014,05,02,07,05,9.50
2014,05,02,07,06,9.60
2014,05,02,07,07,9.70
2014,05,02,07,08,9.70
2014,05,02,07,09,9.80
2014,05,02,07,10,9.90
2014,05,02,07,11,10.00
2014,05,02,07,12,10.10
2014,05,02,07,13,10.20
2014,05,02,07,14,10.30
2014,05,02,07,15,10.50
2014,05,02,07,16,10.60
2014,05,02,07,17,10.80
2014,05,02,07,18,10.90
2014,05,02,07,19,11.10
2014,05,02,07,20,11.20
2014,05,02,07,21,11.40
2014,05,02,07,22,11.50
2014,05,02,07,23,11.60
2014,05,02,07,24,11.80
2014,05,02,07,25,11.90
2014,05,02,07,26,12.10
2014,05,02,07,27,12.20
2014,05,02,07,28,12.40
2014,05,02,07,29,12.60
2014,05,02,07,30,12.80
2014,05,02,07,31,13.00
2014,05,02,07,32,13.20
2014,05,02,07,33,13.30
2014,05,02,07,34,13.40
2014,05,02,07,35,13.50
2014,05,02,07,36,13.50
2014,05,02,07,37,13.60
2014,05,02,07,38,13.60
2014,05,02,07,39,13.70
2014,05,02,07,40,13.70
2014,05,02,07,41,13.80
2014,05,02,07,42,13.90
2014,05,02,07,43,13.90
2014,05,02,07,44,14.10
2014,05,02,07,45,14.10
2014,05,02,07,46,14.20
2014,05,02,07,47,14.30
2014,05,02,07,48,14.40
2014,05,02,07,49,14.50
2014,05,02,07,50,14.60
2014,05,02,07,51,14.60
2014,05,02,07,52,14.70
2014,05,02,07,53,14.80
2014,05,02,07,54,14.90
2014,05,02,07,55,15.00
2014,05,02,07,56,15.00
2014,05,02,07,57,15.00
2014,05,02,07,58,15.00
2014,05,02,07,59,15.10
2014,05,02,08,00,15.20
2014,05,02,08,01,15.30
2014,05,02,08,02,15.40
2014,05,02,08,03,15.40
2014,05,02,08,04,15.50
2014,05,02,08,05,15.60
2014,05,02,08,06,15.70
2014,05,02,08,07,15.80
2014,05,02,08,08,15.90
2014,05,02,08,09,16.00
2014,05,02,08,10,16.20
2014,05,02,08,11,16.30
2014,05,02,08,12,16.30
2014,05,02,08,13,16.40
2014,05,02,08,14,16.50
2014,05,02,08,15,16.60
2014,05,02,08,16,16.70
2014,05,02,08,17,16.90
2014,05,02,08,18,17.10
2014,05,02,08,19,17.20
2014,05,02,08,20,17.40
2014,05,02,08,21,17.50
2014,05,02,08,22,17.60
2014,05,02,08,23,17.70
2014,05,02,08,24,17.90
2014,05,02,08,25,18.00
2014,05,02,08,26,18.10
2014,05,02,08,27,18.20
2014,05,02,08,28,18.30
2014,05,02,08,29,18.40
2014,05,02,08,30,18.50
2014,05,02,08,31,18.50
2014,05,02,08,32,18.60
2014,05,02,08,33,18.60
2014,05,02,08,34,18.70
2014,05,02,08,35,18.70
2014,05,02,08,36,18.70
2014,05,02,08,37,18.70
2014,05,02,08,38,18.80
2014,05,02,08,39,18.80
2014,05,02,08,40,18.80
2014,05,02,08,41,18.90
2014,05,02,08,42,18.90
2014,05,02,08,43,19.00
2014,05,02,08,44,19.00
2014,05,02,08,45,19.00
2014,05,02,08,46,19.10
2014,05,02,08,47,19.10
2014,05,02,08,48,19.10
2014,05,02,08,49,19.10
2014,05,02,08,50,19.10
2014,05,02,08,51,19.20
2014,05,02,08,52,19.20
2014,05,02,08,53,19.20
2014,05,02,08,54,19.20
2014,05,02,08,55,19.30
2014,05,02,08,56,19.30
2014,05,02,08,57,19.30
2014,05,02,08,58,19.30
2014,05,02,08,59,19.30
2014,05,02,09,00,19.30
2014,05,02,09,01,19.30
2014,05,02,09,02,19.40
2014,05,02,09,03,19.40
2014,05,02,09,04,19.40
2014,05,02,09,05,19.40
2014,05,02,09,06,19.40
2014,05,02,09,07,19.50
2014,05,02,09,08,19.50
2014,05,02,09,09,19.60
2014,05,02,09,10,19.60
2014,05,02,09,11,19.70
2014,05,02,09,12,19.70
2014,05,02,09,13,19.70
2014,05,02,09,14,19.80
2014,05,02,09,15,19.80
2014,05,02,09,16,19.80
2014,05,02,09,17,19.80
2014,05,02,09,18,19.80
2014,05,02,09,19,19.80
2014,05,02,09,20,19.70
2014,05,02,09,21,19.70
2014,05,02,09,22,19.70
2014,05,02,09,23,19.70
2014,05,02,09,24,19.70
2014,05,02,09,25,19.70
2014,05,02,09,26,19.70
2014,05,02,09,27,19.70
2014,05,02,09,28,19.70
2014,05,02,09,29,19.70
2014,05,02,09,30,19.70
2014,05,02,09,31,19.70
2014,05,02,09,32,19.70
2014,05,02,09,33,19.70
2014,05,02,09,34,19.80
2014,05,02,09,35,19.80
2014,05,02,09,36,19.80
2014,05,02,09,37,19.90
2014,05,02,09,38,19.90
2014,05,02,09,39,19.90
2014,05,02,09,40,19.90
2014,05,02,09,41,19.90
2014,05,02,09,42,19.90
2014,05,02,09,43,19.80
2014,05,02,09,44,19.80
2014,05,02,09,45,19.80
2014,05,02,09,46,19.80
2014,05,02,09,47,19.80
2014,05,02,09,48,19.70
2014,05,02,09,49,19.70
2014,05,02,09,50,19.70
2014,05,02,09,51,19.70
2014,05,02,09,52,19.70
2014,05,02,09,53,19.60
2014,05,02,09,54,19.60
2014,05,02,09,55,19.70
2014,05,02,09,56,19.70
2014,05,02,09,57,19.70
2014,05,02,09,58,19.70
2014,05,02,09,59,19.60
2014,05,02,10,00,19.50
2014,05,02,10,01,19.40
2014,05,02,10,02,19.40
2014,05,02,10,03,19.40
2014,05,02,10,04,19.30
2014,05,02,10,05,19.30
2014,05,02,10,06,19.30
2014,05,02,10,07,19.30
2014,05,02,10,08,19.30
2014,05,02,10,09,19.20
2014,05,02,10,10,19.20
2014,05,02,10,11,19.20
2014,05,02,10,12,19.20
2014,05,02,10,13,19.20
2014,05,02,10,14,19.20
2014,05,02,10,15,19.20
2014,05,02,10,16,19.20
2014,05,02,10,17,19.20
2014,05,02,10,18,19.20
2014,05,02,10,19,19.20
2014,05,02,10,20,19.20
2014,05,02,10,21,19.10
2014,05,02,10,22,19.10
2014,05,02,10,23,19.10
2014,05,02,10,24,19.10
2014,05,02,10,25,19.10
2014,05,02,10,26,19.10
2014,05,02,10,27,19.10
2014,05,02,10,28,19.10
2014,05,02,10,29,19.20
2014,05,02,10,30,19.20
2014,05,02,10,31,19.20
2014,05,02,10,32,19.20
2014,05,02,10,33,19.20
2014,05,02,10,34,19.30
2014,05,02,10,35,19.30
2014,05,02,10,36,19.30
2014,05,02,10,37,19.30
2014,05,02,10,38,19.30
2014,05,02,10,39,19.30
2014,05,02,10,40,19.30
2014,05,02,10,41,19.30
2014,05,02,10,42,19.30
2014,05,02,10,43,19.30
2014,05,02,10,44,19.30
2014,05,02,10,45,19.30
2014,05,02,10,46,19.30
2014,05,02,10,47,19.20
2014,05,02,10,48,19.20
2014,05,02,10,49,19.10
2014,05,02,10,50,19.10
2014,05,02,10,51,19.10
2014,05,02,10,52,19.00
2014,05,02,10,53,19.00
2014,05,02,10,54,19.00
2014,05,02,10,55,19.10
2014,05,02,10,56,19.10
2014,05,02,10,57,19.10
2014,05,02,10,58,19.10
2014,05,02,10,59,19.00
2014,05,02,11,00,19.00
2014,05,02,11,01,19.00
2014,05,02,11,02,19.00
2014,05,02,11,03,19.10
2014,05,02,11,04,19.10
2014,05,02,11,05,19.20
2014,05,02,11,06,19.30
2014,05,02,11,07,19.40
2014,05,02,11,08,19.50
2014,05,02,11,09,19.60
2014,05,02,11,10,19.70
2014,05,02,11,11,19.70
2014,05,02,11,12,19.70
2014,05,02,11,13,19.70
2014,05,02,11,14,19.80
2014,05,02,11,15,19.80
2014,05,02,11,16,19.80
2014,05,02,11,17,19.80
2014,05,02,11,18,19.80
2014,05,02,11,19,19.80
2014,05,02,11,20,19.80
2014,05,02,11,21,19.70
2014,05,02,11,22,19.70
2014,05,02,11,23,19.70
2014,05,02,11,24,19.70
2014,05,02,11,25,19.70
2014,05,02,11,26,19.60
2014,05,02,11,27,19.60
2014,05,02,11,28,19.60
2014,05,02,11,29,19.50
2014,05,02,11,30,19.50
2014,05,02,11,31,19.40
2014,05,02,11,32,19.40
2014,05,02,11,33,19.30
2014,05,02,11,34,19.30
2014,05,02,11,35,19.30
2014,05,02,11,36,19.50
2014,05,02,11,37,19.50
2014,05,02,11,38,19.60
2014,05,02,11,39,19.80
2014,05,02,11,40,19.80
2014,05,02,11,41,19.90
2014,05,02,11,42,19.90
2014,05,02,11,43,19.90
2014,05,02,11,44,20.00
2014,05,02,11,45,20.00
2014,05,02,11,46,20.10
2014,05,02,11,47,20.20
2014,05,02,11,48,20.20
2014,05,02,11,49,20.20
2014,05,02,11,50,20.20
2014,05,02,11,51,20.30
2014,05,02,11,52,20.30
2014,05,02,11,53,20.20
2014,05,02,11,54,20.20
2014,05,02,11,55,20.20
2014,05,02,11,56,20.20
2014,05,02,11,57,20.10
2014,05,02,11,58,20.00
2014,05,02,11,59,19.90
2014,05,02,12,00,19.90
2014,05,02,12,01,19.90
2014,05,02,12,02,19.90
2014,05,02,12,03,19.90
2014,05,02,12,04,19.90
2014,05,02,12,05,19.90
2014,05,02,12,06,19.90
2014,05,02,12,07,19.90
2014,05,02,12,08,19.80
2014,05,02,12,09,19.80
2014,05,02,12,10,19.80
2014,05,02,12,11,19.80
2014,05,02,12,12,19.80
2014,05,02,12,13,19.80
2014,05,02,12,14,19.80
2014,05,02,12,15,19.90
2014,05,02,12,16,19.90
2014,05,02,12,17,19.90
2014,05,02,12,18,19.90
2014,05,02,12,19,20.00
2014,05,02,12,20,20.00
2014,05,02,12,21,20.00
2014,05,02,12,22,20.10
2014,05,02,12,23,20.20
2014,05,02,12,24,20.20
2014,05,02,12,25,20.30
2014,05,02,12,26,20.30
2014,05,02,12,27,20.30
2014,05,02,12,28,20.40
2014,05,02,12,29,20.30
2014,05,02,12,30,20.20
2014,05,02,12,31,20.00
2014,05,02,12,32,19.90
2014,05,02,12,33,19.80
2014,05,02,12,34,19.80
2014,05,02,12,35,19.70
2014,05,02,12,36,19.70
2014,05,02,12,37,19.70
2014,05,02,12,38,19.60
2014,05,02,12,39,19.60
2014,05,02,12,40,19.70
2014,05,02,12,41,19.70
2014,05,02,12,42,19.80
2014,05,02,12,43,19.90
2014,05,02,12,44,19.90
2014,05,02,12,45,19.90
2014,05,02,12,46,20.00
2014,05,02,12,47,20.10
2014,05,02,12,48,20.10
2014,05,02,12,49,20.10
2014,05,02,12,50,20.10
2014,05,02,12,51,20.10
2014,05,02,12,52,20.10
2014,05,02,12,53,20.10
2014,05,02,12,54,20.00
2014,05,02,12,55,20.00
2014,05,02,12,56,20.00
2014,05,02,12,57,20.10
2014,05,02,12,58,20.00
2014,05,02,12,59,19.90
2014,05,02,13,00,19.90
2014,05,02,13,01,19.90
2014,05,02,13,02,19.90
2014,05,02,13,03,20.00
2014,05,02,13,04,20.00
2014,05,02,13,05,20.10
2014,05,02,13,06,20.20
2014,05,02,13,07,20.20
2014,05,02,13,08,20.30
2014,05,02,13,09,20.40
2014,05,02,13,10,20.50
2014,05,02,13,11,20.40
2014,05,02,13,12,20.40
2014,05,02,13,13,20.40
2014,05,02,13,14,20.20
2014,05,02,13,15,20.00
2014,05,02,13,16,20.00
2014,05,02,13,17,20.00
2014,05,02,13,18,20.00
2014,05,02,13,19,20.10
2014,05,02,13,20,20.20
2014,05,02,13,21,20.20
2014,05,02,13,22,20.20
2014,05,02,13,23,20.20
2014,05,02,13,24,20.20
2014,05,02,13,25,20.20
2014,05,02,13,26,20.10
2014,05,02,13,27,20.10
2014,05,02,13,28,20.00
2014,05,02,13,29,20.00
2014,05,02,13,30,19.90
2014,05,02,13,31,19.90
2014,05,02,13,32,19.90
2014,05,02,13,33,19.80
2014,05,02,13,34,19.60
2014,05,02,13,35,19.60
2014,05,02,13,36,19.50
2014,05,02,13,37,19.40
2014,05,02,13,38,19.40
2014,05,02,13,39,19.30
2014,05,02,13,40,19.20
2014,05,02,13,41,19.20
2014,05,02,13,42,19.20
2014,05,02,13,43,19.20
2014,05,02,13,44,19.20
2014,05,02,13,45,19.20
2014,05,02,13,46,19.10
2014,05,02,13,47,19.00
2014,05,02,13,48,18.90
2014,05,02,13,49,18.90
2014,05,02,13,50,18.80
2014,05,02,13,51,18.80
2014,05,02,13,52,18.70
2014,05,02,13,53,18.70
2014,05,02,13,54,18.60
2014,05,02,13,55,18.50
2014,05,02,13,56,18.50
2014,05,02,13,57,18.40
2014,05,02,13,58,18.40
2014,05,02,13,59,18.40
2014,05,02,14,00,18.40
2014,05,02,14,01,18.30
2014,05,02,14,02,18.30
2014,05,02,14,03,18.20
2014,05,02,14,04,18.20
2014,05,02,14,05,18.10
2014,05,02,14,06,18.10
2014,05,02,14,07,18.10
2014,05,02,14,08,18.20
2014,05,02,14,09,18.20
2014,05,02,14,10,18.20
2014,05,02,14,11,18.20
2014,05,02,14,12,18.30
2014,05,02,14,13,18.40
2014,05,02,14,14,18.50
2014,05,02,14,15,18.50
2014,05,02,14,16,18.50
2014,05,02,14,17,18.50
2014,05,02,14,18,18.40
2014,05,02,14,19,18.30
2014,05,02,14,20,18.30
2014,05,02,14,21,18.20
2014,05,02,14,22,18.10
2014,05,02,14,23,18.00
2014,05,02,14,24,17.90
2014,05,02,14,25,17.90
2014,05,02,14,26,17.90
2014,05,02,14,27,17.90
2014,05,02,14,28,17.90
2014,05,02,14,29,17.90
2014,05,02,14,30,17.90
2014,05,02,14,31,17.90
2014,05,02,14,32,17.90
2014,05,02,14,33,17.90
2014,05,02,14,34,18.00
2014,05,02,14,35,18.00
2014,05,02,14,36,17.90
2014,05,02,14,37,17.90
2014,05,02,14,38,17.90
2014,05,02,14,39,17.90
2014,05,02,14,40,17.80
2014,05,02,14,41,17.80
2014,05,02,14,42,17.80
2014,05,02,14,43,17.80
2014,05,02,14,44,17.80
2014,05,02,14,45,17.70
2014,05,02,14,46,17.70
2014,05,02,14,47,17.70
2014,05,02,14,48,17.70
2014,05,02,14,49,17.70
2014,05,02,14,50,17.70
2014,05,02,14,51,17.70
2014,05,02,14,52,17.70
2014,05,02,14,53,17.70
2014,05,02,14,54,17.70
2014,05,02,14,55,17.70
2014,05,02,14,56,17.70
2014,05,02,14,57,17.70
2014,05,02,14,58,17.70
2014,05,02,14,59,17.70
2014,05,02,15,00,17.60
2014,05,02,15,01,17.60
2014,05,02,15,02,17.60
2014,05,02,15,03,17.60
2014,05,02,15,04,17.60
2014,05,02,15,05,17.60
2014,05,02,15,06,17.60
2014,05,02,15,07,17.70
2014,05,02,15,08,17.70
2014,05,02,15,09,17.80
2014,05,02,15,10,17.80
2014,05,02,15,11,17.70
2014,05,02,15,12,17.70
2014,05,02,15,13,17.70
2014,05,02,15,14,17.70
2014,05,02,15,15,17.80
2014,05,02,15,16,17.80
2014,05,02,15,17,17.80
2014,05,02,15,18,17.80
2014,05,02,15,19,17.90
2014,05,02,15,20,17.80
2014,05,02,15,21,17.80
2014,05,02,15,22,17.70
2014,05,02,15,23,17.70
2014,05,02,15,24,17.70
2014,05,02,15,25,17.70
2014,05,02,15,26,17.70
2014,05,02,15,27,17.60
2014,05,02,15,28,17.60
2014,05,02,15,29,17.60
2014,05,02,15,30,17.60
2014,05,02,15,31,17.60
2014,05,02,15,32,17.70
2014,05,02,15,33,17.70
2014,05,02,15,34,17.80
2014,05,02,15,35,17.80
2014,05,02,15,36,17.90
2014,05,02,15,37,17.90
2014,05,02,15,38,17.90
2014,05,02,15,39,17.90
2014,05,02,15,40,17.80
2014,05,02,15,41,17.80
2014,05,02,15,42,17.80
2014,05,02,15,43,17.90
2014,05,02,15,44,18.00
2014,05,02,15,45,18.10
2014,05,02,15,46,18.20
2014,05,02,15,47,18.30
2014,05,02,15,48,18.30
2014,05,02,15,49,18.30
2014,05,02,15,50,18.40
2014,05,02,15,51,18.60
2014,05,02,15,52,18.70
2014,05,02,15,53,18.80
2014,05,02,15,54,18.90
2014,05,02,15,55,19.00
2014,05,02,15,56,19.00
2014,05,02,15,57,19.00
2014,05,02,15,58,19.10
2014,05,02,15,59,19.10
2014,05,02,16,00,19.10
2014,05,02,16,01,19.10
2014,05,02,16,02,19.00
2014,05,02,16,03,18.90
2014,05,02,16,04,18.90
2014,05,02,16,05,18.90
2014,05,02,16,06,18.80
2014,05,02,16,07,18.70
2014,05,02,16,08,18.60
2014,05,02,16,09,18.60
2014,05,02,16,10,18.40
2014,05,02,16,11,18.40
2014,05,02,16,12,18.40
2014,05,02,16,13,18.40
2014,05,02,16,14,18.40
2014,05,02,16,15,18.40
2014,05,02,16,16,18.40
2014,05,02,16,17,18.40
2014,05,02,16,18,18.40
2014,05,02,16,19,18.40
2014,05,02,16,20,18.30
2014,05,02,16,21,18.30
2014,05,02,16,22,18.20
2014,05,02,16,23,18.20
2014,05,02,16,24,18.20
2014,05,02,16,25,18.20
2014,05,02,16,26,18.10
2014,05,02,16,27,18.00
2014,05,02,16,28,17.90
2014,05,02,16,29,17.90
2014,05,02,16,30,17.90
2014,05,02,16,31,17.90
2014,05,02,16,32,17.90
2014,05,02,16,33,17.90
2014,05,02,16,34,17.90
2014,05,02,16,35,17.80
2014,05,02,16,36,17.70
2014,05,02,16,37,17.70
2014,05,02,16,38,17.70
2014,05,02,16,39,17.70
2014,05,02,16,40,17.70
2014,05,02,16,41,17.70
2014,05,02,16,42,17.70
2014,05,02,16,43,17.70
2014,05,02,16,44,17.70
2014,05,02,16,45,17.70
2014,05,02,16,46,17.70
2014,05,02,16,47,17.70
2014,05,02,16,48,17.70
2014,05,02,16,49,17.70
2014,05,02,16,50,17.70
2014,05,02,16,51,17.70
2014,05,02,16,52,17.70
2014,05,02,16,53,17.60
2014,05,02,16,54,17.60
2014,05,02,16,55,17.50
2014,05,02,16,56,17.50
2014,05,02,16,57,17.40
2014,05,02,16,58,17.40
2014,05,02,16,59,17.30
2014,05,02,17,00,17.30
2014,05,02,17,01,17.40
2014,05,02,17,02,17.40
2014,05,02,17,03,17.40
2014,05,02,17,04,17.40
2014,05,02,17,05,17.50
2014,05,02,17,06,17.50
2014,05,02,17,07,17.50
2014,05,02,17,08,17.60
2014,05,02,17,09,17.60
2014,05,02,17,10,17.60
2014,05,02,17,11,17.60
2014,05,02,17,12,17.70
2014,05,02,17,13,17.70
2014,05,02,17,14,17.70
2014,05,02,17,15,17.60
2014,05,02,17,16,17.50
2014,05,02,17,17,17.40
2014,05,02,17,18,17.30
2014,05,02,17,19,17.20
2014,05,02,17,20,17.20
2014,05,02,17,21,17.20
2014,05,02,17,22,17.20
2014,05,02,17,23,17.20
2014,05,02,17,24,17.20
2014,05,02,17,25,17.20
2014,05,02,17,26,17.20
2014,05,02,17,27,17.20
2014,05,02,17,28,17.20
2014,05,02,17,29,17.20
2014,05,02,17,30,17.20